Flag for Chile Weather past 2 weeks in Osorno, Chile

Now
59 °F

Overcast.


Feels Like: 57 °F
Forecast: 45 / 69 °F
Wind: 12 mph from Northwest

Location: Puerto Montt Airport

Current Time: Oct 21, 2014 at 9:20:00 PM

Latest Report: Oct 21, 2014 at 9:00 PM


Visibility: N/A

Pressure: 29.95 "Hg

Humidity: 77%

Dew point: 52 °F

Location of OsornoLocation

Historic Weather in Osorno — Graph

°F

Osorno temperature yesterday

Maximum temperature yesterday: 64 °F (at 3:00 PM)
Minimum temperature yesterday: 50 °F (at 12:00 AM)
Average temperature yesterday: 57 °F

Past Weeks' High & Low Weather Summary

 TemperatureHumidityPressure
High64 °F (Oct 20, 3:00 PM)100% (Oct 9, 3:00 AM)30.33 "Hg (Oct 9, 3:00 AM)
Low32 °F (Oct 8, 5:00 AM)44% (Oct 7, 3:00 PM)29.62 "Hg (Oct 17, 7:00 PM)
Average49 °F82%30.06 "Hg
* Reported Oct 6 8:00 PM — Oct 21 8:00 PM, Osorno, Weather by CustomWeather, © 2014

Note: Actual official high and low records may vary slightly from our data, if they occured in-between our weather recording intervals... More about our weather records

Advertising

Osorno weather history for previous 24 hours

 ConditionsComfort  
Time TempWeatherWind HumidityBarometerVisibility
8:00 PM
Oct 21
61 °FOvercast.12 mph68%29.95 "HgN/A
7:00 PM61 °FOvercast.10 mph68%29.95 "HgN/A
6:00 PM63 °FMostly cloudy.14 mph68%29.92 "HgN/A
5:00 PM63 °FOvercast.13 mph68%29.92 "HgN/A
4:00 PM63 °FOvercast.9 mph73%29.92 "HgN/A
3:00 PM63 °FOvercast.14 mph73%29.92 "HgN/A
2:00 PM63 °FOvercast.16 mph68%29.92 "HgN/A
1:00 PM63 °FOvercast.18 mph68%29.95 "HgN/A
12:00 PM63 °FBroken clouds.17 mph73%29.95 "HgN/A
11:00 AM61 °FOvercast.14 mph77%29.95 "HgN/A
10:00 AM59 °FPartly sunny.14 mph82%29.95 "HgN/A
9:00 AM57 °FPartly sunny.14 mph88%29.92 "HgN/A
8:00 AM55 °FBroken clouds.10 mph88%29.95 "HgN/A
7:00 AM55 °FOvercast.12 mph88%29.92 "HgN/A
6:00 AM55 °FPassing clouds.12 mph88%29.92 "HgN/A
5:00 AM55 °FPassing clouds.10 mph88%29.92 "HgN/A
4:00 AM54 °FClear.12 mph94%29.92 "Hg10 mi
3:00 AM54 °FPassing clouds.9 mph94%29.95 "HgN/A
2:00 AM55 °FPassing clouds.10 mph88%29.95 "HgN/A
1:00 AM55 °FPassing clouds.13 mph88%29.98 "HgN/A
12:00 AM55 °FPassing clouds.13 mph88%29.98 "HgN/A
11:00 PM
Oct 20
57 °FPassing clouds.14 mph77%29.98 "HgN/A
10:00 PM57 °FPartly cloudy.13 mph77%29.98 "HgN/A
9:00 PM59 °FOvercast.14 mph77%29.95 "HgN/A
Weather by CustomWeather, © 2014

See weather overviewHow to use our weather pages